Location: Newark
(22.3060°N, 114.2134°E)
Time: 06:15:01
(UTC+00:00)

Explorer 11/Cluster Stage 4 - Pass Details

Date: 29 July 2021
Orbit: 467 x 1256 km, 28.8° (Epoch: 24 September)

Event Time Altitude Azimuth Distance (km) Brightness Sun altitude
Rises 07:15:28 0° 289° (WNW) 3,892 10.7 51.1°
Reaches altitude 10° 07:18:29 10° 290° (WNW) 2,821 10.3 50.4°
Maximum altitude 07:25:20 84° 19° (NNE) 877 7.7 48.8°
Drops below altitude 10° 07:30:43 10° 107° (ESE) 2,243 8.6 47.6°
Sets 07:32:53 0° 108° (ESE) 3,051 9.2 47.1°
